RYR2TL EPMO-EGSS

Flight info

Callsign RYR2TL
Flight time 1h 51m
Altitude 36000
Route OLILA DCT MEBIV DCT RILAB L621 SOMOR DCT TADAK L29 ALUKA DCT GARLU DCT NOGRO M40 RINIS
Aircraft B738/M-SDE2E3FGHIRWXY/LB1

Departure

Time 2026-04-23 19:25
Airport Warsaw Modlin Airport (EPMO)

Arrival

Time 2026-04-23 21:16
Airport London Stansted Airport (EGSS)
Time Latitude Longitude Altitude Speed Heading
2026-04-23 18:57 52.44752 20.65272 349 ft 0 kts 201°
2026-04-23 19:18 52.44757 20.65275 349 ft 4 kts 199°
2026-04-23 19:18 52.44781 20.65281 349 ft 4 kts 152°
2026-04-23 19:18 52.44790 20.65261 359 ft 1 kts 81°
2026-04-23 19:20 52.44790 20.65265 349 ft 2 kts 81°
2026-04-23 19:21 52.44796 20.65327 354 ft 10 kts 81°
2026-04-23 19:21 52.44824 20.65614 356 ft 13 kts 82°
2026-04-23 19:21 52.44836 20.65760 349 ft 14 kts 82°
2026-04-23 19:22 52.44846 20.65869 351 ft 15 kts 81°
2026-04-23 19:22 52.44870 20.66121 357 ft 18 kts 80°
2026-04-23 19:22 52.44902 20.66471 351 ft 20 kts 81°
2026-04-23 19:23 52.44926 20.66716 351 ft 22 kts 82°
2026-04-23 19:23 52.44960 20.67035 356 ft 17 kts 63°
2026-04-23 19:23 52.45014 20.67069 351 ft 13 kts 353°
2026-04-23 19:24 52.45166 20.67030 352 ft 10 kts 348°
2026-04-23 19:24 52.45242 20.66995 356 ft 13 kts 343°
2026-04-23 19:24 52.45236 20.66408 351 ft 84 kts 262°
2026-04-23 19:25 52.44958 20.63286 868 ft 160 kts 265°
2026-04-23 19:25 52.44568 20.59587 2327 ft 186 kts 269°
2026-04-23 19:26 52.44240 20.55087 3537 ft 201 kts 285°
2026-04-23 19:26 52.44485 20.52699 3900 ft 221 kts 286°
2026-04-23 19:27 52.45051 20.47253 4892 ft 263 kts 284°
2026-04-23 19:27 52.46076 20.37127 6119 ft 327 kts 283°
2026-04-23 19:28 52.46806 20.29655 7666 ft 338 kts 283°
2026-04-23 19:28 52.47562 20.21871 9165 ft 350 kts 283°
2026-04-23 19:29 52.47946 20.17905 9924 ft 356 kts 283°
2026-04-23 19:29 52.48729 20.09777 11344 ft 364 kts 284°
2026-04-23 19:30 52.49526 20.01466 12745 ft 373 kts 285°
2026-04-23 19:30 52.49930 19.97238 13449 ft 377 kts 285°
2026-04-23 19:30 52.50745 19.88642 14759 ft 385 kts 285°
2026-04-23 19:31 52.51154 19.84300 15431 ft 387 kts 285°
2026-04-23 19:31 52.51566 19.79896 16084 ft 390 kts 285°
2026-04-23 19:31 52.51979 19.75479 16689 ft 393 kts 285°
2026-04-23 19:31 52.52394 19.71027 17301 ft 397 kts 285°
2026-04-23 19:32 52.52811 19.66528 17925 ft 400 kts 285°
2026-04-23 19:32 52.53230 19.61992 18517 ft 403 kts 285°
2026-04-23 19:32 52.53649 19.57434 19046 ft 405 kts 285°
2026-04-23 19:32 52.54069 19.52840 19579 ft 407 kts 285°
2026-04-23 19:33 52.54489 19.48226 20108 ft 410 kts 285°
2026-04-23 19:33 52.54911 19.43573 20616 ft 413 kts 285°
2026-04-23 19:33 52.55756 19.34194 21606 ft 418 kts 285°
2026-04-23 19:34 52.56174 19.29519 22035 ft 421 kts 285°
2026-04-23 19:34 52.56600 19.24746 22449 ft 424 kts 285°
2026-04-23 19:34 52.57454 19.15081 23349 ft 429 kts 285°
2026-04-23 19:35 52.57881 19.10216 23773 ft 431 kts 286°
2026-04-23 19:35 52.58308 19.05322 24130 ft 434 kts 286°
2026-04-23 19:35 52.58734 19.00415 24486 ft 436 kts 286°
2026-04-23 19:35 52.59163 18.95458 24841 ft 438 kts 286°
2026-04-23 19:36 52.59591 18.90488 25188 ft 440 kts 286°
2026-04-23 19:36 52.60018 18.85494 25529 ft 442 kts 286°
2026-04-23 19:36 52.60445 18.80476 25817 ft 444 kts 286°
2026-04-23 19:36 52.60873 18.75430 26111 ft 447 kts 285°
2026-04-23 19:37 52.61301 18.70356 26424 ft 449 kts 285°
2026-04-23 19:37 52.61728 18.65261 26735 ft 450 kts 285°
2026-04-23 19:37 52.62154 18.60150 27036 ft 452 kts 285°
2026-04-23 19:37 52.62580 18.55009 27326 ft 454 kts 285°
2026-04-23 19:38 52.63006 18.49852 27610 ft 456 kts 285°
2026-04-23 19:38 52.63431 18.44672 27910 ft 457 kts 285°
2026-04-23 19:38 52.63851 18.39499 28315 ft 456 kts 285°
2026-04-23 19:38 52.64268 18.34335 28772 ft 453 kts 286°
2026-04-23 19:39 52.64680 18.29199 29175 ft 452 kts 285°
2026-04-23 19:39 52.65091 18.24072 29577 ft 451 kts 285°
2026-04-23 19:39 52.65499 18.18955 29975 ft 450 kts 286°
2026-04-23 19:39 52.65903 18.13854 30373 ft 449 kts 286°
2026-04-23 19:40 52.66305 18.08759 30712 ft 448 kts 286°
2026-04-23 19:40 52.66704 18.03684 31012 ft 448 kts 286°
2026-04-23 19:40 52.67103 17.98585 31322 ft 448 kts 286°
2026-04-23 19:40 52.67498 17.93498 31649 ft 447 kts 286°
2026-04-23 19:41 52.67889 17.88426 31977 ft 446 kts 286°
2026-04-23 19:41 52.68279 17.83347 32293 ft 446 kts 286°
2026-04-23 19:41 52.68666 17.78279 32538 ft 446 kts 286°
2026-04-23 19:41 52.69052 17.73198 32800 ft 447 kts 286°
2026-04-23 19:42 52.69435 17.68123 33102 ft 446 kts 286°
2026-04-23 19:42 52.69815 17.63047 33417 ft 446 kts 286°
2026-04-23 19:42 52.70192 17.57976 33718 ft 445 kts 286°
2026-04-23 19:42 52.70567 17.52909 33998 ft 445 kts 286°
2026-04-23 19:43 52.70940 17.47844 34263 ft 445 kts 286°
2026-04-23 19:43 52.71311 17.42781 34513 ft 445 kts 286°
2026-04-23 19:43 52.71679 17.37720 34749 ft 445 kts 286°
2026-04-23 19:43 52.72045 17.32654 34971 ft 444 kts 285°
2026-04-23 19:44 52.72411 17.27588 35077 ft 447 kts 285°
2026-04-23 19:44 52.72778 17.22475 35203 ft 449 kts 285°
2026-04-23 19:44 52.73141 17.17370 35455 ft 448 kts 285°
2026-04-23 19:44 52.73498 17.12278 35747 ft 446 kts 285°
2026-04-23 19:45 52.73852 17.07199 35996 ft 445 kts 285°
2026-04-23 19:45 52.74207 17.02107 36122 ft 447 kts 285°
2026-04-23 19:45 52.74564 16.96984 36116 ft 450 kts 285°
2026-04-23 19:46 52.75268 16.86727 36120 ft 449 kts 285°
2026-04-23 19:46 52.75954 16.76526 36114 ft 445 kts 284°
2026-04-23 19:47 52.76518 16.68091 36122 ft 445 kts 284°
2026-04-23 19:47 52.77304 16.56217 36133 ft 446 kts 284°
2026-04-23 19:48 52.77968 16.46033 36137 ft 446 kts 284°
2026-04-23 19:48 52.78623 16.35827 36137 ft 447 kts 284°
2026-04-23 19:49 52.79271 16.25599 36133 ft 447 kts 283°
2026-04-23 19:49 52.79909 16.15365 36130 ft 448 kts 283°
2026-04-23 19:50 52.80540 16.05111 36137 ft 449 kts 283°
2026-04-23 19:50 52.81163 15.94846 36137 ft 449 kts 283°
2026-04-23 19:51 52.81774 15.84625 36140 ft 450 kts 283°
2026-04-23 19:51 52.82380 15.74344 36136 ft 449 kts 282°
2026-04-23 19:52 52.82976 15.64061 36139 ft 449 kts 282°
2026-04-23 19:52 52.83563 15.53785 36145 ft 449 kts 282°
2026-04-23 19:53 52.84142 15.43502 36142 ft 449 kts 282°
2026-04-23 19:53 52.84712 15.33215 36137 ft 449 kts 282°
2026-04-23 19:54 52.85273 15.22933 36134 ft 448 kts 281°
2026-04-23 19:54 52.85823 15.12668 36135 ft 448 kts 281°
2026-04-23 19:55 52.86367 15.02376 36142 ft 449 kts 281°
2026-04-23 19:55 52.86900 14.92090 36141 ft 449 kts 281°
2026-04-23 19:56 52.87426 14.81789 36139 ft 449 kts 281°
2026-04-23 19:56 52.87943 14.71475 36142 ft 449 kts 281°
2026-04-23 19:57 52.88451 14.61159 36140 ft 450 kts 281°
2026-04-23 19:57 52.88950 14.50848 36139 ft 450 kts 281°
2026-04-23 19:58 52.89442 14.40533 36141 ft 450 kts 281°
2026-04-23 19:58 52.89909 14.30193 36141 ft 451 kts 278°
2026-04-23 19:59 52.89904 14.19765 36139 ft 454 kts 275°
2026-04-23 19:59 52.89745 14.09312 36132 ft 454 kts 274°
2026-04-23 20:00 52.89592 13.98852 36152 ft 454 kts 274°
2026-04-23 20:00 52.89458 13.88387 36149 ft 455 kts 275°
2026-04-23 20:01 52.89327 13.77911 36154 ft 455 kts 275°
2026-04-23 20:01 52.89188 13.67429 36146 ft 455 kts 274°
2026-04-23 20:02 52.89039 13.56942 36155 ft 456 kts 274°
2026-04-23 20:02 52.88880 13.46451 36153 ft 456 kts 274°
2026-04-23 20:03 52.88711 13.35949 36152 ft 456 kts 274°
2026-04-23 20:03 52.88533 13.25456 36153 ft 456 kts 274°
2026-04-23 20:04 52.88346 13.14972 36149 ft 456 kts 273°
2026-04-23 20:04 52.88152 13.04576 36156 ft 456 kts 272°
2026-04-23 20:05 52.87980 12.95765 36155 ft 456 kts 272°
2026-04-23 20:05 52.87730 12.83510 36156 ft 456 kts 272°
2026-04-23 20:06 52.87507 12.73029 36163 ft 456 kts 272°
2026-04-23 20:06 52.87274 12.62551 36160 ft 455 kts 272°
2026-04-23 20:07 52.87031 12.52081 36173 ft 455 kts 272°
2026-04-23 20:07 52.86823 12.43384 36171 ft 455 kts 271°
2026-04-23 20:08 52.86565 12.32920 36180 ft 455 kts 271°
2026-04-23 20:08 52.86297 12.22455 36179 ft 455 kts 271°
2026-04-23 20:09 52.86020 12.12004 36175 ft 455 kts 271°
2026-04-23 20:09 52.85734 12.01544 36183 ft 455 kts 271°
2026-04-23 20:10 52.85438 11.91092 36183 ft 455 kts 271°
2026-04-23 20:10 52.85134 11.80638 36192 ft 455 kts 270°
2026-04-23 20:11 52.84820 11.70178 36198 ft 455 kts 270°
2026-04-23 20:11 52.84497 11.59723 36191 ft 455 kts 270°
2026-04-23 20:12 52.84165 11.49275 36199 ft 455 kts 270°
2026-04-23 20:12 52.83823 11.38809 36199 ft 455 kts 270°
2026-04-23 20:13 52.83473 11.28361 36199 ft 455 kts 270°
2026-04-23 20:13 52.83116 11.17923 36202 ft 455 kts 269°
2026-04-23 20:14 52.82671 11.07556 36213 ft 456 kts 266°
2026-04-23 20:14 52.81904 10.97140 36212 ft 456 kts 265°
2026-04-23 20:15 52.81065 10.86750 36215 ft 456 kts 265°
2026-04-23 20:15 52.80244 10.76355 36218 ft 456 kts 265°
2026-04-23 20:16 52.79437 10.65959 36221 ft 456 kts 265°
2026-04-23 20:16 52.78629 10.55571 36220 ft 456 kts 264°
2026-04-23 20:17 52.77814 10.45201 36224 ft 456 kts 264°
2026-04-23 20:17 52.76988 10.34818 36233 ft 456 kts 264°
2026-04-23 20:18 52.76151 10.24428 36236 ft 456 kts 264°
2026-04-23 20:18 52.75306 10.14047 36238 ft 456 kts 264°
2026-04-23 20:19 52.74452 10.03683 36240 ft 456 kts 264°
2026-04-23 20:19 52.73587 9.93297 36246 ft 456 kts 264°
2026-04-23 20:20 52.72714 9.82914 36260 ft 457 kts 263°
2026-04-23 20:20 52.71832 9.72554 36259 ft 457 kts 264°
2026-04-23 20:21 52.70940 9.62168 36274 ft 457 kts 263°
2026-04-23 20:21 52.70038 9.51795 36260 ft 457 kts 263°
2026-04-23 20:22 52.69131 9.41456 36266 ft 457 kts 264°
2026-04-23 20:22 52.68209 9.31069 36262 ft 457 kts 263°
2026-04-23 20:23 52.67283 9.20729 36275 ft 457 kts 263°
2026-04-23 20:23 52.66346 9.10376 36280 ft 457 kts 263°
2026-04-23 20:24 52.65400 9.00023 36290 ft 457 kts 262°
2026-04-23 20:24 52.64444 8.89673 36300 ft 457 kts 262°
2026-04-23 20:25 52.63485 8.79389 36308 ft 458 kts 262°
2026-04-23 20:25 52.62501 8.68945 36311 ft 459 kts 262°
2026-04-23 20:26 52.61521 8.58633 36313 ft 459 kts 262°
2026-04-23 20:26 52.60524 8.48248 36307 ft 459 kts 261°
2026-04-23 20:27 52.59519 8.37876 36324 ft 459 kts 261°
2026-04-23 20:27 52.58505 8.27517 36322 ft 458 kts 261°
2026-04-23 20:28 52.57485 8.17178 36329 ft 458 kts 261°
2026-04-23 20:28 52.56455 8.06852 36328 ft 458 kts 261°
2026-04-23 20:29 52.55418 7.96537 36334 ft 457 kts 260°
2026-04-23 20:29 52.54372 7.86227 36333 ft 457 kts 260°
2026-04-23 20:30 52.53319 7.75949 36334 ft 456 kts 260°
2026-04-23 20:30 52.51726 7.60566 36341 ft 456 kts 259°
2026-04-23 20:31 52.50650 7.50288 36338 ft 457 kts 259°
2026-04-23 20:31 52.49565 7.40010 36352 ft 457 kts 259°
2026-04-23 20:32 52.48469 7.29725 36344 ft 458 kts 259°
2026-04-23 20:32 52.47363 7.19434 36345 ft 458 kts 259°
2026-04-23 20:33 52.46248 7.09147 36348 ft 458 kts 258°
2026-04-23 20:33 52.45125 6.98874 36350 ft 458 kts 258°
2026-04-23 20:34 52.43991 6.88582 36355 ft 458 kts 258°
2026-04-23 20:34 52.42850 6.78319 36352 ft 457 kts 258°
2026-04-23 20:35 52.41702 6.68071 36355 ft 457 kts 258°
2026-04-23 20:35 52.40545 6.57835 36355 ft 457 kts 258°
2026-04-23 20:36 52.39380 6.47609 36364 ft 457 kts 258°
2026-04-23 20:36 52.38208 6.37404 36365 ft 456 kts 257°
2026-04-23 20:37 52.37037 6.27285 36368 ft 456 kts 257°
2026-04-23 20:37 52.35848 6.17095 36372 ft 456 kts 257°
2026-04-23 20:38 52.34650 6.06912 36374 ft 456 kts 257°
2026-04-23 20:38 52.33448 5.96769 36373 ft 456 kts 257°
2026-04-23 20:39 52.32231 5.86579 36382 ft 456 kts 256°
2026-04-23 20:39 52.31006 5.76404 36377 ft 456 kts 256°
2026-04-23 20:40 52.29773 5.66237 36380 ft 456 kts 256°
2026-04-23 20:40 52.28532 5.56082 36396 ft 456 kts 256°
2026-04-23 20:41 52.27283 5.45940 36396 ft 456 kts 256°
2026-04-23 20:41 52.26025 5.35802 36398 ft 455 kts 255°
2026-04-23 20:42 52.24774 5.25793 36388 ft 455 kts 255°
2026-04-23 20:42 52.23502 5.15689 36393 ft 455 kts 255°
2026-04-23 20:43 52.22221 5.05591 36394 ft 455 kts 255°
2026-04-23 20:43 52.20930 4.95486 36400 ft 455 kts 255°
2026-04-23 20:44 52.19634 4.85413 36406 ft 454 kts 255°
2026-04-23 20:44 52.18332 4.75375 36400 ft 454 kts 255°
2026-04-23 20:45 52.17014 4.65276 36390 ft 454 kts 255°
2026-04-23 20:45 52.15697 4.55260 36385 ft 455 kts 254°
2026-04-23 20:46 52.14364 4.45194 36392 ft 455 kts 254°
2026-04-23 20:46 52.13022 4.35127 36394 ft 455 kts 254°
2026-04-23 20:47 52.11674 4.25086 36403 ft 456 kts 254°
2026-04-23 20:47 52.10309 4.14991 36399 ft 456 kts 254°
2026-04-23 20:48 52.08939 4.04930 36407 ft 456 kts 254°
2026-04-23 20:48 52.07561 3.94876 36408 ft 456 kts 254°
2026-04-23 20:49 52.06175 3.84827 36416 ft 456 kts 253°
2026-04-23 20:49 52.04781 3.74793 36413 ft 455 kts 253°
2026-04-23 20:50 52.03376 3.64754 36394 ft 455 kts 253°
2026-04-23 20:50 52.01976 3.54804 36395 ft 455 kts 253°
2026-04-23 20:51 52.00558 3.44802 36405 ft 455 kts 253°
2026-04-23 20:51 51.99133 3.34809 36409 ft 455 kts 253°
2026-04-23 20:52 51.97699 3.24811 36416 ft 455 kts 253°
2026-04-23 20:52 51.96344 3.14792 36410 ft 457 kts 258°
2026-04-23 20:53 51.95657 3.04519 36412 ft 459 kts 261°
2026-04-23 20:53 51.95060 2.94224 36413 ft 459 kts 260°
2026-04-23 20:54 51.94506 2.85673 36420 ft 459 kts 259°
2026-04-23 20:54 51.93802 2.75395 36412 ft 459 kts 259°
2026-04-23 20:55 51.93091 2.65118 36415 ft 459 kts 259°
2026-04-23 20:55 51.92383 2.54849 36415 ft 459 kts 259°
2026-04-23 20:56 51.91673 2.44583 36415 ft 459 kts 259°
2026-04-23 20:56 51.90958 2.34300 36068 ft 465 kts 261°
2026-04-23 20:57 51.90901 2.29027 35468 ft 470 kts 270°
2026-04-23 20:57 51.91231 2.23748 34823 ft 471 kts 272°
2026-04-23 20:57 51.91627 2.18481 34083 ft 472 kts 272°
2026-04-23 20:57 51.92036 2.13197 33290 ft 473 kts 272°
2026-04-23 20:58 51.92433 2.07959 32536 ft 473 kts 272°
2026-04-23 20:58 51.92821 2.02635 31742 ft 473 kts 272°
2026-04-23 20:58 51.93192 1.97346 30954 ft 473 kts 272°
2026-04-23 20:58 51.93553 1.92033 30097 ft 474 kts 272°
2026-04-23 20:59 51.93906 1.86721 29113 ft 475 kts 272°
2026-04-23 20:59 51.94254 1.81422 28187 ft 474 kts 272°
2026-04-23 20:59 51.94599 1.76146 27460 ft 470 kts 272°
2026-04-23 20:59 51.94943 1.70867 26766 ft 465 kts 272°
2026-04-23 21:00 51.95279 1.65681 26102 ft 460 kts 272°
2026-04-23 21:00 51.95610 1.60545 25451 ft 456 kts 273°
2026-04-23 21:00 51.95933 1.55467 24820 ft 452 kts 273°
2026-04-23 21:00 51.96252 1.50435 24180 ft 448 kts 273°
2026-04-23 21:01 51.96567 1.45418 23448 ft 445 kts 273°
2026-04-23 21:01 51.96878 1.40443 22746 ft 441 kts 274°
2026-04-23 21:01 51.97183 1.35522 22101 ft 435 kts 274°
2026-04-23 21:01 51.97483 1.30666 21453 ft 431 kts 274°
2026-04-23 21:02 51.97777 1.25855 20822 ft 426 kts 274°
2026-04-23 21:02 51.98066 1.21098 20204 ft 422 kts 274°
2026-04-23 21:02 51.98349 1.16416 19599 ft 418 kts 274°
2026-04-23 21:02 51.98631 1.11724 18989 ft 415 kts 274°
2026-04-23 21:03 51.98908 1.07068 18332 ft 412 kts 274°
2026-04-23 21:03 51.99180 1.02460 17655 ft 408 kts 275°
2026-04-23 21:03 51.99448 0.97909 17024 ft 405 kts 275°
2026-04-23 21:03 51.99712 0.93373 16416 ft 402 kts 275°
2026-04-23 21:04 51.99973 0.88879 15812 ft 399 kts 275°
2026-04-23 21:04 52.00230 0.84421 15218 ft 396 kts 275°
2026-04-23 21:04 52.00484 0.79977 14625 ft 394 kts 275°
2026-04-23 21:04 52.00732 0.75621 13981 ft 394 kts 276°
2026-04-23 21:05 52.00984 0.71194 13351 ft 391 kts 276°
2026-04-23 21:05 52.01229 0.66832 12736 ft 389 kts 276°
2026-04-23 21:05 52.01475 0.62417 12131 ft 386 kts 276°
2026-04-23 21:05 52.01652 0.58135 11481 ft 384 kts 270°
2026-04-23 21:06 52.01512 0.53791 10773 ft 385 kts 265°
2026-04-23 21:06 52.01243 0.49412 10137 ft 383 kts 264°
2026-04-23 21:06 52.00979 0.45193 9514 ft 380 kts 265°
2026-04-23 21:06 52.00746 0.40950 8911 ft 376 kts 265°
2026-04-23 21:07 52.00539 0.36727 8330 ft 373 kts 265°
2026-04-23 21:07 52.00343 0.32569 7762 ft 369 kts 265°
2026-04-23 21:07 51.99906 0.28485 7172 ft 366 kts 248°
2026-04-23 21:07 51.98591 0.25012 6636 ft 360 kts 228°
2026-04-23 21:08 51.96851 0.22223 6401 ft 346 kts 221°
2026-04-23 21:08 51.95078 0.19598 5881 ft 343 kts 220°
2026-04-23 21:08 51.93325 0.17016 5415 ft 339 kts 220°
2026-04-23 21:08 51.91587 0.14435 4946 ft 336 kts 221°
2026-04-23 21:09 51.89895 0.11895 4454 ft 325 kts 221°
2026-04-23 21:09 51.88266 0.09440 3750 ft 321 kts 221°
2026-04-23 21:09 51.86650 0.07004 3202 ft 312 kts 221°
2026-04-23 21:09 51.85101 0.04656 3006 ft 294 kts 221°
2026-04-23 21:10 51.83670 0.02469 2916 ft 277 kts 220°
2026-04-23 21:10 51.82293 0.00367 2849 ft 266 kts 220°
2026-04-23 21:10 51.80977 -0.01633 2814 ft 253 kts 218°
2026-04-23 21:10 51.79515 -0.02925 2699 ft 229 kts 185°
2026-04-23 21:11 51.78035 -0.02823 2606 ft 204 kts 160°
2026-04-23 21:11 51.76782 -0.02010 2518 ft 184 kts 143°
2026-04-23 21:11 51.75907 -0.00719 2490 ft 163 kts 117°
2026-04-23 21:11 51.75553 0.00977 2488 ft 161 kts 96°
2026-04-23 21:12 51.75610 0.02797 2497 ft 166 kts 79°
2026-04-23 21:12 51.76028 0.04549 2491 ft 169 kts 60°
2026-04-23 21:12 51.76864 0.05903 2501 ft 172 kts 45°
2026-04-23 21:12 51.77732 0.07224 2494 ft 172 kts 48°
2026-04-23 21:13 51.78605 0.08568 2497 ft 173 kts 48°
2026-04-23 21:13 51.79481 0.09896 2501 ft 172 kts 47°
2026-04-23 21:13 51.80327 0.11170 2392 ft 161 kts 47°
2026-04-23 21:13 51.81121 0.12365 2167 ft 151 kts 48°
2026-04-23 21:14 51.81855 0.13472 1992 ft 143 kts 47°
2026-04-23 21:14 51.82575 0.14560 1794 ft 140 kts 47°
2026-04-23 21:14 51.83275 0.15615 1589 ft 136 kts 47°
2026-04-23 21:14 51.83967 0.16658 1415 ft 137 kts 46°
2026-04-23 21:15 51.84661 0.17703 1224 ft 139 kts 46°
2026-04-23 21:15 51.85364 0.18769 1042 ft 138 kts 45°
2026-04-23 21:15 51.86072 0.19838 832 ft 140 kts 44°
2026-04-23 21:15 51.86786 0.20908 618 ft 139 kts 43°
2026-04-23 21:16 51.87488 0.21966 428 ft 138 kts 43°
2026-04-23 21:16 51.88188 0.23011 331 ft 129 kts 43°
2026-04-23 21:16 51.88730 0.23824 334 ft 85 kts 43°
2026-04-23 21:16 51.89009 0.24249 337 ft 32 kts 52°
2026-04-23 21:17 51.89101 0.24528 338 ft 27 kts 70°
2026-04-23 21:17 51.89157 0.24753 338 ft 15 kts 66°
2026-04-23 21:17 51.89160 0.24875 352 ft 7 kts 109°
2026-04-23 21:17 51.89158 0.24946 346 ft 7 kts 51°
2026-04-23 21:18 51.89203 0.25025 350 ft 12 kts 49°
2026-04-23 21:18 51.89240 0.25135 347 ft 4 kts 88°
2026-04-23 21:18 51.89237 0.25163 343 ft 3 kts 108°
2026-04-23 21:18 51.89228 0.25187 350 ft 2 kts 127°
2026-04-23 21:19 51.89217 0.25209 350 ft 3 kts 128°
2026-04-23 21:19 51.89201 0.25247 348 ft 5 kts 121°
2026-04-23 21:19 51.89181 0.25308 350 ft 7 kts 120°
2026-04-23 21:19 51.89149 0.25375 337 ft 9 kts 132°
2026-04-23 21:20 51.89110 0.25441 340 ft 4 kts 137°
2026-04-23 21:20 51.89109 0.25476 337 ft 4 kts 64°
2026-04-23 21:20 51.89122 0.25510 341 ft 4 kts 56°
2026-04-23 21:20 51.89123 0.25512 341 ft 0 kts 55°
2026-04-23 21:21 51.89126 0.25518 351 ft 2 kts 55°
2026-04-23 21:21 51.89127 0.25521 341 ft 0 kts 55°